Location: Im Fang
(46.6019°N, 7.2397°E)
Time: 01:40:37
(UTC+00:00)

Cosmos 1340 - Visible Passes

Search period start: 03 April 2020 00:00
Search period end: 13 April 2020 00:00
Orbit: 501 x 506 km, 81.2° (Epoch: 02 April)

Date Brightness Start Highest point End Pass type
(mag) Time Alt. Az. Time Alt. Az. Time Alt. Az.
08 Apr 6.0 23:01:36 10° NNW 23:01:46 11° NNW 23:01:46 11° NNW visible
09 Apr 5.8 22:42:43 10° NNW 22:43:13 13° NNW 22:43:13 13° NNW visible
10 Apr 5.6 22:23:52 10° N 22:24:41 16° N 22:24:41 16° N visible
11 Apr 5.3 22:05:04 10° N 22:06:08 18° N 22:06:08 18° N visible
12 Apr 5.1 21:46:18 10° N 21:47:37 20° N 21:47:37 20° N visible
